www.pogodaiklimat.ru

Погода и климат >> Архив погоды >> Россия >> Дагестан >> Кизляр


ПОГОДА в Кизляре

  • Прогноз погоды в Кизляре
  • Монитор погоды в Кизляре

АРХИВ ПОГОДЫ в Кизляре

Время (UTC), дата Ветер
(напр.,м/с)
 
Видим.   Явления Облачность Т
(С)
Тd
(С)
f
(%)
Тe
(С)
Тes
(С)
Комфортность P
(гПа)
Po
(гПа)
Тmin
(С)
Tmax
(С)
R
(мм)
R24
(мм)
S
(см)
03 16.08 В 4 10 км 8/8 600 м
[Sc Ac trans]
+21.9 +18.0 79 +27 +27 душно 1009.3 1009.8 +20.9
06 16.08 В 7-12
{13}
10 км 4/4 600 м
[Cu hum]
+26.8 +17.4 56 +31 +32 душно 1009.4 1009.9
09 16.08 В 8-13
{13}
10 км 3/3 600 м
[Cu hum]
+29.2 +16.2 45 +32 +34 душно 1009.1 1009.6
12 16.08 В 7-12
{13}
10 км ясно +29.1 +16.3 46 +32 +35 душно 1007.5 1008.0
15 16.08 В 7-11
{14}
10 км ясно +25.9 +15.8 54 +29 +29 душно 1006.1 1006.6 +29.6
18 16.08 В 4
{11}
10 км ясно +22.7 +17.5 72 +28 +28 душно 1007.2 1007.7
21 16.08 В 2 10 км 3/0
[Ac trans]
+21.8 +17.9 79 +26 +26 душно 1006.9 1007.4
00 17.08 В 1 10 км 4/0
[Ac trans]
+22.1 +18.5 80 +27 +27 душно 1006.4 1006.9
03 17.08 В 3 10 км 8/8 600 м
[Sc Ac trans]
+22.0 +18.2 79 +27 +27 душно 1006.6 1007.1 +21.5
06 17.08 В 5 10 км 8/8 600 м
[Sc Ac trans]
+28.5 +14.9 44 +31 +32 душно 1007.2 1007.8
09 17.08 В 3
{10}
10 км 6/6 600 м
[Sc Ac trans]
+31.0 +15.6 39 +33 +39 душно 1008.0 1008.5
12 17.08 ЮВ 6-10
{11}
10 км 8/8 600 м
[Sc Ac trans]
+29.9 +12.6 35 +31 +32 жарко 1007.6 1008.1
15 17.08 В 3 10 км 8/8 600 м
[Sc Ac trans]
+28.0 +13.1 40 +30 +30 жарко 1008.1 1008.6 +31.5
18 17.08 В 1 10 км 6/0
[Ac trans]
+22.6 +17.3 72 +27 +27 душно 1010.0 1010.5
21 17.08 В 2 10 км 6/0
[Ac trans]
+20.5 +17.0 80 +24 +24 комфорт 1009.7 1010.2
00 18.08 В 1 10 км 6/0
[Ac trans]
+21.7 +18.1 80 +26 +26 душно 1009.4 1009.9
03 18.08 В 2 10 км 9/9 600 м
[Sc Ac trans]
+21.6 +16.9 75 +26 +26 душно 1008.1 1008.7 +20.3
06 18.08 В 5
{10}
10 км 8/8 600 м
[Sc Ac trans]
+27.9 +15.6 47 +31 +32 душно 1007.3 1007.8
09 18.08 В 6-12
{15}
10 км 6/6 600 м
[Cu Sc Ac trans]
+31.7 +12.3 31 +32 +35 жарко 1006.6 1007.1
12 18.08 В 9-15
{19}
10 км 4/4 600 м
[Cu hum Ac trans]
+32.1 +11.9 29 +32 +33 жарко 1006.3 1006.8
15 18.08 В 5
{19}
10 км 6/6 600 м
[Sc Ac trans]
+27.8 +15.8 48 +31 +31 душно 1007.4 1007.9 +33.8
18 18.08 В 2 10 км 6/6 600 м
[Sc Ac trans]
+23.0 +17.2 70 +28 +28 душно 1009.8 1010.4
21 18.08 ЮВ 2 10 км 6/6 600 м
[Sc Ac trans]
+21.6 +18.5 83 +26 +26 душно 1010.4 1010.9
00 19.08 В 3 10 км 4/4 600 м
[Sc Ac trans]
+19.8 +17.0 84 +23 +23 комфорт 1011.1 1011.7
03 19.08 В 2 4000 м дымка 4/4 600 м
[Sc Ac trans]
+20.0 +19.1 95 +24 +24 комфорт 1012.5 1013.0 +19.2
06 19.08 ЮВ 3 10 км 3/0
[Ac trans]
+28.4 +19.6 59 +34 +41 очень
душно
1013.5 1014.0
09 19.08 ЮВ 3 10 км ясно +33.4 +13.3 30 +34 +48 очень
жарко
1013.2 1013.7
12 19.08 В 3
{11}
10 км ясно +34.5 +8.9 21 +33 +40 жарко 1013.2 1013.7
15 19.08 штиль 0 10 км 3/0
[Ac trans]
+28.6 +15.8 46 +32 +32 душно 1014.0 1014.5 +35.7
18 19.08 В 2 10 км ясно +22.1 +18.1 78 +27 +27 душно 1015.2 1015.7
21 19.08 В 3 10 км ясно +20.7 +17.8 83 +25 +25 комфорт 1015.1 1015.6
00 20.08 В 3 10 км ясно +19.9 +18.3 90 +23 +23 комфорт 1015.1 1015.6
03 20.08 В 3 10 км ясно +18.7 +17.0 90 +20 +20 1015.7 1016.2 +18.4
06 20.08 В 1 10 км ясно +29.0 +17.1 49 +33 +44 очень
душно
1015.9 1016.4
09 20.08 В 5
{11}
10 км ясно +33.4 +13.9 31 +35 +43 душно 1015.5 1016.0
12 20.08 В 7-12
{13}
10 км ясно +32.7 +11.3 27 +33 +35 жарко 1014.6 1014.5
15 20.08 В 5-10
{13}
10 км ясно +28.1 +15.2 45 +31 +31 душно 1014.6 1015.1 +33.9
18 20.08 В 1 10 км ясно +22.5 +17.7 74 +28 +28 душно 1015.5 1016.0
21 20.08 В 1 10 км ясно +21.2 +17.8 81 +25 +25 комфорт 1014.7 1015.3
00 21.08 В 1 10 км ясно +19.9 +15.5 76 +23 +23 комфорт 1014.5 1015.0
03 21.08 штиль 0 10 км ясно +18.4 +15.2 82 +19 +20 1014.8 1015.3 +17.1
06 21.08 В 3 10 км ясно +29.4 +14.5 40 +31 +39 жарко 1014.9 1015.4
09 21.08 В 3 10 км ясно +34.8 +9.4 21 +33 +47 жарко 1013.3 1013.8
12 21.08 В 5
{11}
10 км ясно +35.0 +8.6 20 +33 +38 жарко 1011.9 1012.4
15 21.08 В 4
{11}
10 км ясно +30.4 +10.6 29 +30 +31 жарко 1011.9 1012.4 +36.1
18 21.08 В 2 10 км ясно +22.9 +18.7 77 +29 +29 очень
душно
1012.0 1012.5
21 21.08 В 2 4000 м дымка ясно +21.4 +20.3 93 +27 +27 душно 1011.5 1012.0
00 22.08 В 1 10 км ясно +21.4 +18.8 85 +26 +26 душно 1011.3 1011.8
03 22.08 штиль 0 10 км ясно +19.3 +16.6 84 +21 +22 комфорт 1011.6 1012.2 +12.8
06 22.08 В 2 10 км ясно +29.8 +17.6 48 +34 +43 очень
душно
1011.3 1011.8
09 22.08 В 1 10 км ясно +35.2 +11.2 23 +35 +53 опасность
солнечного
удара
1010.6 1011.1
12 22.08 В 5 10 км ясно +35.6 +5.8 16 +33 +38 жарко 1010.1 1010.6
15 22.08 В 2 10 км ясно +30.4 +10.7 30 +31 +31 жарко 1010.4 1010.9 +36.1
18 22.08 В 3 10 км ясно +21.1 +11.9 56 +23 +23 комфорт 1011.6 1012.1
21 22.08 В 3 10 км ясно +21.3 +16.5 74 +25 +25 комфорт 1011.4 1011.9
00 23.08 В 2 10 км ясно +18.9 +17.5 92 +21 +21 комфорт 1010.8 1011.4

 

Местоположение метеостанции Кизляр (Дагестан, Россия): широта 43.83 долгота 46.72 высота над уровнем моря -5 м.

В архиве по умолчанию представлена погода в Кизляре за последнюю неделю. Архивные данные за месяц целиком и за предыдущие месяцы, начиная с января 2011 года, Вы можете получить, выбрав интересующий диапазон дат из раскрывающегося списка и нажав кнопку "Ввод!".


*Определитесь, кто Вы:
робот инопланетянин человек

Внимание! Время в таблицах - всемирное. Для получения местного времени необходимо прибавить поправку, которая равна 3 ч.

Смотрите также архив погоды в соседних городах и на ближайших метеорологических станциях:

Погода в Бабаюрте (Дагестан, Россия) (26 км)
Погода в Шелковской (Чечня, Россия) (44 км)
Погода в Кочубее (Дагестан, Россия) (65 км)
Погода в Хасавюрте (Дагестан, Россия) (65 км)
Погода в Гудермесе (Чечня, Россия) (72 км)
Погода в Терекли-Мектебе (Дагестан, Россия) (75 км)
Погода на Острове Тюлений (Дагестан, Россия) (94 км)
Погода в Грозном (Чечня, Россия) (103 км)
Погода в Махачкале (Дагестан, Россия) (109 км)
Погода в Наурской (Чечня, Россия) (114 км)

Пояснения к столбцам:

Ветер - указаны скорость ветра в м/с - средняя за 10 мин, порывы в срок и между сроками (в фигурных скобках) и направление, откуда дует ветер: С - северный, СВ - северо-восточный, В - восточный, ЮВ - юго-восточный, Ю - южный, ЮЗ - юго-западный, З - западный, СЗ - северо-западный.
Видимость - горизонтальная дальность видимости в метрах или километрах. При видимости от 1 до 10 км при отсутствии осадков обычно наблюдается дымка, при ухудшении видимости до 1 км и менее - туман. В сухую погоду видимость может ухудшаться дымом, пылью или мглою.
Явления - указаны атмосферные явления, наблюдавшиеся в срок или в последний час перед сроком; фигурными скобками обозначены явления, наблюдавшиеся между сроками (за 1-3 часа до срока); квадратными скобками обозначены град или гололедные отложения с указанием их диаметра в мм.
Облачность - указаны через наклонную черту общая и нижняя облачность в баллах и высота нижней границы облаков в метрах; квадратными скобками обозначены формы облаков: Ci - перистые, Cs - перисто-слоистые, Cc - перисто-кучевые, Ac - высококучевые, As - высокослоистые, Sc - слоисто-кучевые, Ns - слоисто-дождевые, Cu - кучевые, Cb - кучево-дождевые. Подробнее классификацию облаков см. в Атласе облаков (PDF).
T - Температура воздуха - температура, измеренная на высоте 2 м над землей.
Td - Температура точки росы - температура, при понижении до которой содержащийся в воздухе водяной пар достигнет насыщения.
f - Относительная влажность воздуха - влажноcть воздуха, измеренная на высоте 2 м над землей.
Te - Эффективная температура - температура, которую ощущает одетый по сезону человек в тени. Характеристика душности погоды. При расчете учитывается влияние влажности воздуха и скорости ветра на теплоощущения человека.
Tes - Эффективная температура на солнце - температура, которую ощущает человек, с поправкой на солнечный нагрев. Характеристика знойности погоды. Зависит от высоты солнца над горизонтом, облачности и скорости ветра. Ночью, в пасмурную погоду, а также при ветре 12 м/с и более поправка равна нулю.
P - Атмосферное давление - приведенное к уровню моря атмосферное давление.
Po - Атмосферное давление - измеренное на уровне метеостанции атмосферное давление.
Tmin - Минимальная температура - минимум температуры воздуха на высоте 2 м над землей.
Tmax - Максимальная температура - максимум температуры воздуха на высоте 2 м над землей.
R - Количество осадков - Количество выпавших осадков за период времени, мм. При наведении курсора мыши на число - период времени, за который выпало указанное количество осадков.
R24 - Количество осадков - Количество выпавших осадков за 24 часа, мм.
S - Снежный покров - Высота снежного покрова, см. При наведении курсора мыши на число - состояние снежного покрова и степень покрытия местности в баллах.